Theta_e
306 309 313 317 325 325 326 326 326 327 327 325 325 326 326 324 325 325 326 326 329 330 332 332 330 331 330 329 329 329 328 327 325 324 323 321 318 317
305 308 309 312 319 325 325 325 326 326 327 323 323 324 325 323 324 324 326 324 326 328 329 331 331 331 330 329 328 328 328 327 325 325 325 323 321 319
308 309 312 313 313 318 324 325 325 323 324 324 325 321 322 322 325 327 325 325 327 328 327 329 330 330 330 329 328 328 327 326 325 326 324 324 323 321
295 296 296 304 310 318 320 324 326 326 326 327 325 324 324 322 323 325 324 326 326 326 327 327 328 329 329 329 329 328 328 327 326 326 325 324 324 323
289 291 290 291 294 299 305 310 318 325 324 325 325 324 325 326 326 325 325 325 326 325 325 325 327 328 329 329 328 328 328 328 327 326 324 324 324 324
286 287 288 287 287 290 290 295 299 307 321 324 324 325 326 326 325 326 326 326 325 324 324 325 328 327 326 328 327 327 328 327 326 325 324 323 324 324
284 284 285 286 286 285 286 286 291 297 299 304 316 320 321 319 317 315 324 325 325 324 324 324 325 325 325 324 325 325 325 326 326 325 324 323 322 323
282 282 282 283 284 284 283 283 283 285 286 289 288 289 289 286 289 294 300 316 323 313 313 321 321 322 320 320 321 322 322 324 325 324 323 322 322 321
280 280 281 281 281 282 282 282 282 282 282 282 283 282 283 283 285 291 294 295 293 293 299 308 310 313 313 311 315 319 321 321 320 320 320 319 318 319
279 278 278 279 279 281 281 281 280 280 281 281 281 280 281 281 284 286 288 291 293 292 292 294 296 297 296 296 296 299 306 311 311 314 315 314 315 315
275 277 276 277 278 278 278 278 279 279 280 279 279 279 281 280 282 284 283 287 295 286 284 286 290 292 294 294 292 293 293 293 298 299 301 303 307 310
273 274 275 275 275 275 275 275 276 276 277 278 280 280 279 281 280 281 280 282 283 283 282 282 285 287 292 291 291 292 292 292 290 293 294 295 297 300
272 272 272 272 273 272 272 272 273 274 275 276 276 276 277 277 278 279 280 279 280 280 279 280 282 282 284 286 288 288 288 289 288 289 291 290 291 292
271 270 270 270 270 270 270 270 270 272 273 274 274 274 275 275 276 277 277 278 278 278 278 279 280 280 282 285 287 286 285 286 286 286 286 287 287 289
269 269 269 268 268 267 268 267 268 269 270 270 271 272 273 274 274 275 276 277 278 277 277 277 278 278 281 283 284 284 283 283 283 283 284 284 284 285
268 268 267 268 267 267 267 266 266 267 268 268 269 270 271 272 273 274 274 275 276 276 277 277 277 278 281 281 282 282 282 283 282 282 282 282 283 283
268 268 268 268 267 267 267 266 266 266 266 267 268 268 269 270 271 272 273 273 274 275 275 276 277 278 278 279 281 281 281 282 283 282 283 283 283 281
268 268 268 268 267 267 267 266 266 265 265 266 266 266 267 269 269 271 271 271 272 273 274 275 275 277 279 279 278 279 280 281 281 282 282 283 283 281
269 268 268 268 267 267 266 266 265 265 264 265 265 265 265 267 268 269 270 270 271 272 272 273 274 275 277 279 278 277 277 278 280 281 281 282 282 280
269 269 268 268 267 267 266 266 265 265 264 264 264 264 264 266 267 267 268 268 269 270 271 272 272 273 274 276 277 277 276 277 279 280 281 280 279 278
267 267 268 268 267 267 266 266 265 264 264 264 264 264 264 265 265 266 266 266 267 269 270 270 270 270 273 276 277 277 277 276 276 278 279 280 280 280
265 266 266 266 266 266 266 266 266 266 265 264 264 264 263 264 265 265 265 266 267 267 268 269 269 271 273 274 276 276 277 277 276 276 276 277 279 282
263 263 264 264 264 264 264 264 265 265 265 264 264 263 263 264 264 264 264 265 265 266 267 268 269 270 272 273 274 275 276 276 277 277 277 276 276 277
Wind_Speed
21 18 17 19 28 29 28 26 17 10 14 19 15 24 30 31 28 27 32 30 34 41 48 45 44 43 42 42 40 38 39 40 38 39 42 43 43 42
18 21 23 24 21 21 33 33 28 23 8 18 23 30 44 46 47 40 35 29 31 37 42 44 43 43 42 42 41 41 42 41 41 41 41 46 45 44
13 14 16 17 25 24 20 26 30 31 19 32 31 42 47 33 20 23 33 28 26 31 33 37 38 40 42 42 40 40 42 41 42 42 41 45 47 47
23 20 18 11 11 16 25 20 23 22 24 15 24 23 27 32 33 30 33 23 24 27 28 28 30 36 41 43 40 40 41 42 42 41 43 41 47 48
32 30 31 27 21 16 13 12 10 17 21 18 17 18 21 22 23 27 27 18 25 28 29 30 31 31 38 41 42 41 42 42 41 41 42 43 45 49
33 37 35 36 34 26 21 19 13 11 9 18 17 17 15 13 16 16 12 16 18 30 31 31 31 29 33 39 42 42 42 43 40 39 41 42 45 48
37 35 37 31 35 38 35 35 24 17 17 16 8 9 10 12 9 12 15 16 17 24 26 31 30 30 30 32 35 36 37 36 37 37 39 37 37 40
36 36 36 36 33 35 33 43 47 34 28 21 18 16 19 21 20 17 13 8 8 6 12 17 21 25 25 25 29 31 32 34 35 37 37 38 37 37
37 35 35 36 34 32 34 37 41 41 39 32 26 27 21 26 20 15 11 7 6 17 5 4 5 15 12 15 21 25 27 28 29 31 32 31 30 33
39 39 39 39 37 35 36 41 40 39 38 33 29 27 28 31 23 14 13 12 4 14 19 5 15 8 4 6 4 4 13 19 21 22 24 25 27 28
36 42 39 40 38 35 38 32 31 35 30 28 29 30 31 31 34 30 33 17 5 10 29 11 13 8 5 3 5 6 4 5 7 8 10 14 19 24
32 34 37 38 37 37 37 31 29 28 27 31 32 32 34 34 34 35 29 18 13 7 23 15 15 13 3 7 10 9 10 9 9 3 1 5 7 8
30 31 34 34 36 35 34 33 26 21 25 26 27 29 29 30 31 27 27 23 18 8 20 16 17 15 7 7 7 10 18 15 13 11 7 9 10 9
27 28 29 30 31 35 33 29 27 23 22 22 24 24 25 27 27 23 19 15 15 15 19 20 8 12 8 5 5 13 18 8 16 13 11 8 8 7
26 24 26 29 30 32 33 33 32 28 26 26 24 23 22 20 21 22 19 14 10 16 18 19 15 12 10 8 8 7 11 13 11 15 13 11 11 10
23 27 26 26 31 29 33 33 31 27 25 24 22 21 20 22 23 23 22 23 15 20 17 19 20 13 9 10 9 10 11 8 13 12 12 11 11 9
20 22 25 27 27 27 27 29 29 28 27 25 24 24 23 22 21 21 20 19 18 20 22 23 24 16 8 10 9 13 12 10 11 10 10 8 7 9
23 25 25 25 25 25 25 25 25 25 23 22 21 21 20 20 21 20 20 20 19 19 18 20 20 18 14 4 8 13 12 13 11 9 7 6 5 7
22 22 21 21 20 21 21 22 22 21 19 19 19 19 19 19 19 19 18 18 18 18 17 17 17 17 9 7 10 8 15 15 12 9 7 5 3 5
18 18 18 17 17 17 17 18 18 19 20 20 20 19 19 17 17 17 17 19 20 18 18 16 16 17 15 11 16 18 13 12 14 10 7 3 1 2
17 16 15 15 15 15 15 15 15 17 17 18 19 19 20 18 18 18 18 18 18 17 19 19 20 21 16 15 11 13 11 10 9 9 6 5 3 3
15 15 16 14 14 14 14 14 15 15 15 16 17 19 19 18 19 20 19 20 19 20 19 21 21 19 15 14 13 14 13 9 8 6 3 2 4 3
15 15 15 14 14 15 15 14 14 14 14 14 16 17 18 19 18 19 20 19 19 19 19 22 21 18 15 14 14 12 12 10 8 7 4 5 4 6
Wind_Direction
264 271 285 282 238 226 228 220 220 235 231 221 214 228 238 245 252 256 264 270 273 265 255 248 247 243 241 238 239 238 239 240 236 232 228 228 230 232
265 264 265 264 276 242 233 235 225 226 244 212 222 245 254 253 245 247 247 265 280 265 260 256 251 246 243 237 236 236 238 240 242 236 231 231 231 232
264 271 267 273 263 275 262 234 239 228 238 243 230 237 246 246 241 240 251 252 270 262 258 255 250 249 244 238 232 235 236 236 238 240 235 238 232 235
34 34 25 354 345 263 270 259 233 213 223 222 210 218 236 248 244 238 239 239 263 269 271 265 257 245 243 237 232 232 235 236 237 236 237 239 238 237
42 41 35 33 24 12 7 1 298 226 216 229 237 231 230 233 228 232 235 242 251 265 271 269 264 254 240 236 236 233 233 235 237 238 236 240 242 242
47 45 43 41 37 34 28 18 351 347 255 219 231 237 231 231 236 242 240 239 250 265 266 265 257 254 250 239 237 232 231 234 233 237 236 239 243 246
49 46 45 47 49 48 45 37 34 29 19 10 360 321 302 302 321 312 270 266 255 246 251 257 253 248 244 241 238 235 235 232 233 235 234 236 238 242
45 45 42 41 48 49 48 53 49 47 43 44 35 26 15 356 345 336 331 316 233 233 250 228 235 241 240 234 228 228 227 231 231 231 233 233 235 239
40 41 42 38 45 48 50 53 50 49 50 47 44 32 23 0 354 339 350 328 1 345 299 259 188 181 196 218 223 227 223 221 222 224 229 235 238 241
42 37 39 36 37 45 49 52 50 46 44 45 45 38 32 26 27 5 335 312 93 351 13 25 11 38 183 176 131 176 209 211 217 226 231 235 238 242
46 43 41 39 34 37 46 43 43 42 49 46 45 40 43 36 38 37 18 357 38 15 12 360 357 357 338 43 318 7 22 317 204 210 227 238 245 249
42 41 42 42 40 39 42 35 36 27 27 37 42 40 36 43 44 47 24 16 10 7 5 354 359 3 342 55 42 26 36 1 348 67 314 289 264 267
40 36 35 39 42 42 45 41 37 32 30 33 32 29 27 23 34 38 45 24 22 22 0 360 14 9 331 329 5 22 3 349 332 345 353 340 322 318
43 39 37 39 43 42 42 40 41 43 39 39 36 28 22 16 15 22 36 34 30 32 11 19 5 355 323 332 345 341 345 346 353 1 353 346 328 334
48 45 44 44 44 43 38 38 38 35 32 33 26 21 16 10 11 16 22 21 14 23 16 17 8 340 344 343 324 335 347 333 3 354 351 356 356 348
45 45 44 41 41 38 35 33 34 31 30 26 19 15 14 14 15 13 10 5 4 1 4 10 11 356 348 339 335 343 343 329 340 347 346 354 355 353
47 45 42 38 36 34 33 30 27 24 24 20 17 13 11 10 10 9 9 6 7 358 357 356 1 357 340 347 355 352 345 342 351 352 354 347 358 360
41 40 38 36 34 30 28 26 26 24 20 17 16 13 9 7 3 4 5 3 359 354 352 353 355 355 4 348 358 352 349 342 343 345 344 324 335 8
38 34 34 32 30 29 27 24 22 20 17 18 16 12 7 4 3 1 360 356 351 346 346 346 353 359 348 340 328 335 340 342 336 330 344 352 350 18
27 23 22 20 20 20 20 19 18 16 16 15 12 10 6 1 360 359 355 350 344 340 341 346 349 347 330 317 312 310 320 343 346 325 330 335 31 72
16 12 5 2 2 2 3 6 6 7 9 10 9 6 2 360 355 352 347 345 341 341 335 335 334 327 315 308 298 313 323 318 346 346 310 286 286 279
10 5 2 357 350 348 345 345 350 355 359 3 4 2 360 358 352 348 346 340 338 335 329 328 330 330 323 317 315 315 314 316 309 311 323 358 340 318
4 360 354 350 348 346 345 338 331 335 341 349 354 357 357 353 350 346 342 339 335 332 332 330 331 330 319 310 305 311 315 315 308 295 284 315 294 296